Estherville, IA

9:40 PM CDT on September 20, 2017 (GMT -0500)
Estherville Municipal

Weather History for KEST - August, 2013

Change the Weather History Date:

Wednesday, August 21, 2013

  Actual Average Record
Temperature  
Mean Temperature 77 °F 68 °F  
Max Temperature 84 °F 79 °F 96 °F (1959)
Min Temperature 70 °F 58 °F 36 °F (2004)
Degree Days  
Heating Degree Days 0 1  
Month to date heating degree days 23 10  
Since 1 June heating degree days 99 60  
Since 1 July heating degree days 45 19  
Cooling Degree Days 12 4  
Month to date cooling degree days 51 112  
Year to date cooling degree days 465 504  
Since 1 June cooling degree days 432 468  
Growing Degree Days 26 (Base 50)    
Moisture  
Dew Point 72 °F    
Average Humidity 87    
Maximum Humidity 100    
Minimum Humidity 74    
Precipitation  
Precipitation 0.00 in 0.09 in 2.32 in (2017)
Month to date precipitation 1.25 2.80  
Sea Level Pressure  
Sea Level Pressure 29.93 in    
Wind  
Wind Speed 6 mph (SW)    
Max Wind Speed 14 mph    
Max Gust Speed 20 mph    
Visibility 6 miles    
Events Thunderstorm    
T = Trace of Precipitation, MM = Missing Value Source: NWS Daily Summary

Daily Weather History Graph

Daily Weather History Graph

Search for Another Location

Airport or City:

Trip Planner

Search our weather history database for the weather conditions in past years. The results will help you decide how hot, cold, wet, or windy it might be!

Date:

Astronomy

Aug. 21, 2013 Rise Set
Actual Time 6:31 AM CDT 8:12 PM CDT
Civil Twilight 6:00 AM CDT 8:42 PM CDT
Nautical Twilight 5:23 AM CDT 9:19 PM CDT
Astronomical Twilight 4:44 AM CDT 9:58 PM CDT
Moon 8:17 PM CDT 7:15 AM CDT
Length of Visible Light 14h 41m
Length of Day
13h 41m
Waxing Gibbous, 99% of the Moon is Illuminated
Aug 21
Waxing Gibbous
Aug 28
Last Quarter
Sep 5
New
Sep 12
First Quarter
Sep 19
Full

Hourly Weather History & Observations

Time (CDT) Temp. Heat Index Dew Point Humidity Pressure Visibility Wind Dir Wind Speed Gust Speed Precip Events Conditions
12:52 AM 72.0 °F - 71.1 °F 97% 29.89 in 7.0 mi South 8.1 mph - N/A   Clear
1:52 AM 73.0 °F - 70.0 °F 90% 29.89 in 8.0 mi SSW 8.1 mph - N/A   Clear
2:52 AM 73.0 °F - 70.0 °F 90% 29.88 in 8.0 mi SSW 8.1 mph - N/A   Clear
3:52 AM 72.0 °F - 70.0 °F 93% 29.88 in 8.0 mi South 10.4 mph - N/A   Clear
4:52 AM 70.0 °F - 69.1 °F 97% 29.87 in 7.0 mi SSW 9.2 mph - N/A   Clear
5:52 AM 71.1 °F - 69.1 °F 93% 29.87 in 8.0 mi SSW 6.9 mph - N/A   Clear
6:52 AM 71.1 °F - 69.1 °F 93% 29.88 in 7.0 mi SSW 5.8 mph - N/A   Clear
7:52 AM 72.0 °F - 69.1 °F 91% 29.89 in 7.0 mi SSW 9.2 mph - N/A   Clear
8:52 AM 75.0 °F - 69.1 °F 82% 29.90 in 8.0 mi SW 9.2 mph - N/A   Clear
9:52 AM 75.0 °F - 69.1 °F 82% 29.91 in 8.0 mi SW 9.2 mph - N/A   Clear
10:52 AM 75.9 °F - 69.1 °F 79% 29.92 in 8.0 mi SW 8.1 mph - N/A   Clear
11:52 AM 79.0 °F - 72.0 °F 79% 29.91 in 8.0 mi SW 8.1 mph - N/A Thunderstorm Partly Cloudy
12:24 PM 78.8 °F - 71.6 °F 78% 29.95 in 1.2 mi SW 3.5 mph - N/A Thunderstorm Unknown
12:27 PM 78.8 °F - 71.6 °F 78% 29.95 in 5.0 mi SW 3.5 mph - N/A Thunderstorm Unknown
12:52 PM 77.0 °F - 69.1 °F 76% 29.92 in 8.0 mi SW 6.9 mph - N/A   Clear
1:16 PM 80.6 °F 84.6 °F 71.6 °F 74% 29.95 in 8.0 mi SW 10.4 mph - N/A Thunderstorm Clear
1:41 PM 80.6 °F 85.4 °F 73.4 °F 79% 29.96 in 8.0 mi SSW 8.1 mph - N/A   Clear
1:52 PM 82.0 °F 87.9 °F 73.9 °F 76% 29.94 in 8.0 mi SSW 8.1 mph - N/A   Clear
2:52 PM 82.9 °F 88.8 °F 73.0 °F 72% 29.94 in 9.0 mi West 3.5 mph - N/A   Clear
3:52 PM 82.0 °F 87.9 °F 73.9 °F 76% 29.94 in 8.0 mi WNW 3.5 mph - N/A   Partly Cloudy
4:17 PM 80.6 °F 85.4 °F 73.4 °F 79% 29.97 in 7.0 mi NNW 4.6 mph - N/A   Mostly Cloudy
4:31 PM 80.6 °F 85.4 °F 73.4 °F 79% 29.96 in 7.0 mi North 5.8 mph - N/A   Scattered Clouds
4:52 PM 79.0 °F - 73.9 °F 84% 29.95 in 6.0 mi North 4.6 mph - N/A   Haze
5:52 PM 78.1 °F - 75.0 °F 90% 29.94 in 6.0 mi SSE 3.5 mph - N/A   Overcast
6:52 PM 78.1 °F - 75.9 °F 93% 29.95 in 5.0 mi Calm Calm - N/A   Clear
7:52 PM 75.9 °F - 75.0 °F 97% 29.96 in 3.0 mi Calm Calm - N/A   Clear
8:52 PM 73.9 °F - 73.0 °F 97% 29.95 in 4.0 mi East 5.8 mph - N/A   Clear
9:52 PM 73.0 °F - 73.0 °F 100% 29.98 in 4.0 mi Calm Calm - N/A   Clear
10:52 PM 73.0 °F - 73.0 °F 100% 29.97 in 3.0 mi WSW 4.6 mph - N/A   Clear
11:14 PM 71.6 °F - 71.6 °F 100% 29.99 in 2.5 mi ESE 3.5 mph - N/A   Clear
11:22 PM 71.6 °F - 71.6 °F 100% 29.99 in 3.0 mi Calm Calm - N/A   Clear
11:52 PM 72.0 °F - 72.0 °F 100% 29.98 in 4.0 mi Calm Calm - N/A   Clear